Wind_Speed
12 13 14 14 14 14 15 15 16 16 17 17 17 17 18 18 19 20 20 20 21 22 23 24 25 26 27 28 29 29 30 30 30 31 31 32 32 33 33 32 32 32 32 32
13 14 14 14 14 15 15 15 15 16 16 17 17 18 18 19 20 21 22 22 23 24 25 25 24 25 25 25 26 27 28 29 30 29 30 31 31 31 31 32 32 32 32 31
14 14 14 14 15 15 15 14 15 15 16 17 18 18 18 19 21 21 22 22 23 23 25 25 25 25 25 25 25 26 27 27 28 28 28 29 30 31 29 31 32 31 32 31
15 14 14 14 15 14 14 14 14 15 16 16 17 17 17 18 19 20 20 21 22 23 24 24 24 24 24 24 24 24 24 25 26 26 26 26 27 28 30 29 29 28 27 27
15 15 14 14 13 13 13 13 13 13 13 14 15 17 16 18 19 19 20 21 23 22 22 23 23 23 22 22 21 21 21 22 23 24 25 25 26 26 27 28 28 27 26 26
16 14 13 13 13 13 13 13 13 12 12 13 14 15 14 16 17 18 20 21 21 21 21 21 21 21 21 20 20 20 20 21 22 22 22 23 24 25 26 26 27 27 26 26
15 14 13 13 13 13 13 12 12 12 12 12 13 14 14 15 16 17 19 19 19 18 19 19 19 19 19 18 19 20 20 20 20 20 20 20 21 22 24 25 26 26 26 26
15 15 14 13 13 13 13 12 12 12 12 12 12 13 13 14 15 16 17 17 16 17 17 17 17 17 17 17 18 19 19 20 20 19 19 19 20 20 22 23 24 24 24 24
14 15 14 14 13 13 12 11 12 13 12 12 11 11 12 14 15 16 16 16 15 16 16 17 17 17 16 17 17 18 18 19 20 20 19 19 19 20 21 22 23 23 23 23
15 15 15 14 13 12 11 11 11 12 13 12 11 12 13 13 14 16 15 15 16 16 16 16 16 16 16 16 17 17 17 18 19 19 19 19 19 20 20 21 22 22 22 23
14 15 15 14 13 12 12 12 12 13 14 15 14 12 14 15 16 16 16 15 16 16 16 15 15 16 16 16 16 17 17 17 18 19 19 20 20 19 20 21 21 21 22 23
15 15 16 16 14 13 13 13 14 14 15 15 16 14 15 17 18 18 17 17 18 18 17 17 17 18 17 17 17 17 18 18 18 19 20 20 20 20 20 20 20 21 21 21
16 16 16 15 15 14 14 14 14 14 15 15 15 15 17 18 19 19 19 19 19 19 19 18 19 18 18 18 19 19 18 18 18 19 20 20 20 20 20 21 21 21 21 22
17 17 17 17 16 15 14 14 14 14 15 16 15 16 18 19 20 19 20 20 20 20 20 19 20 20 20 20 20 19 19 18 18 19 20 20 21 21 21 21 22 22 23 23
18 18 17 17 17 16 15 14 15 15 16 17 16 18 19 20 20 20 21 21 22 21 21 21 21 21 21 21 20 20 19 19 19 19 20 20 21 21 21 22 22 22 22 23
18 18 18 17 16 16 15 15 15 15 17 17 17 19 20 20 21 22 22 23 23 23 23 23 23 23 22 22 22 21 20 20 20 20 20 21 21 21 22 23 22 22 22 22
20 19 18 17 17 16 14 14 15 16 17 18 19 19 21 22 22 23 24 24 25 25 25 24 23 23 22 22 21 21 21 21 21 21 21 21 21 21 21 21 21 21 21 20
20 20 19 17 17 16 14 14 15 15 16 18 19 21 22 22 23 24 25 25 25 25 24 24 23 23 22 21 21 21 21 21 21 20 20 20 20 20 21 21 21 20 19 20
18 19 19 18 17 15 15 16 17 17 17 19 20 21 21 22 24 25 25 25 25 24 24 23 22 22 21 21 21 20 20 20 19 18 18 18 19 20 19 19 19 19 20 20
17 18 18 18 17 16 15 16 17 18 18 19 19 20 21 23 24 24 24 24 24 23 22 22 21 21 20 19 19 18 18 18 17 17 17 17 17 18 17 17 17 17 17 17
16 16 16 16 16 16 16 16 16 17 17 17 18 19 21 22 23 24 23 23 22 21 21 20 20 19 18 17 16 16 16 15 15 15 14 14 15 16 16 16 16 15 15 15
14 14 14 15 16 16 15 16 16 16 15 16 17 19 20 21 22 22 21 21 20 20 19 18 17 16 15 15 14 13 12 12 12 12 12 12 12 12 13 13 13 14 14 13
14 14 14 14 15 15 15 15 14 14 14 15 17 18 19 20 20 20 19 19 19 18 17 16 14 13 13 12 11 10 10 9 9 9 9 10 9 9 10 10 11 11 12 13
12 12 12 12 12 13 14 13 12 13 13 14 15 16 17 18 18 17 17 17 16 15 14 13 11 11 10 9 8 8 7 7 7 7 7 8 8 8 8 9 10 9 10 10
11 11 10 10 10 10 10 9 10 11 11 12 14 15 16 16 15 15 15 15 14 13 11 10 9 8 7 6 5 5 5 5 5 5 6 6 6 7 7 7 8 8 7 8
12 10 9 8 8 8 7 8 8 9 10 11 11 13 14 15 14 14 14 13 12 11 9 7 6 5 4 3 3 3 3 3 4 4 5 5 6 7 6 6 6 6 6 6
Wind_Direction
211 211 213 213 214 215 218 220 224 232 239 244 249 253 254 258 265 269 272 273 273 275 275 277 278 277 274 271 268 265 264 265 264 263 263 261 259 259 256 252 251 251 253 257
206 208 212 215 216 217 221 223 227 237 247 251 255 260 264 266 270 274 277 279 280 280 280 279 279 279 275 274 271 267 267 267 267 265 263 260 260 259 256 251 250 248 250 255
205 209 214 216 218 223 229 230 234 243 252 260 264 269 273 276 279 280 282 283 283 282 281 280 280 278 276 275 274 272 270 269 267 265 262 260 258 258 255 252 251 249 249 254
202 211 217 221 227 234 236 240 245 252 257 265 274 279 281 285 287 286 287 287 287 285 283 281 281 278 276 276 275 272 273 271 267 264 262 260 258 257 254 252 251 251 249 251
207 216 221 226 235 242 242 247 252 258 267 274 281 286 290 292 292 291 290 290 290 288 285 284 283 281 277 275 275 273 273 272 269 266 262 261 260 256 252 249 248 248 251 254
211 219 224 230 240 245 249 255 257 265 276 281 287 293 300 298 295 295 295 294 291 287 286 286 284 282 278 276 274 274 273 272 271 268 265 263 260 255 249 247 247 249 251 253
211 221 228 234 241 249 258 262 263 273 281 288 292 299 305 302 301 301 301 299 293 287 285 286 285 281 278 275 273 272 272 270 269 267 267 264 260 255 251 247 247 245 246 251
214 224 231 237 246 256 263 267 272 281 288 290 295 304 308 306 306 308 306 302 297 291 288 288 287 284 279 274 273 272 272 269 265 265 265 265 261 257 253 249 249 247 247 248
221 228 238 246 252 259 263 267 275 283 290 295 302 310 312 311 312 314 311 305 300 296 293 291 289 287 281 276 274 273 271 267 264 263 263 263 262 257 253 249 248 248 247 248
226 231 239 246 252 259 266 269 277 285 295 300 304 313 316 314 314 315 315 310 307 301 295 292 289 288 285 280 277 275 273 268 263 262 262 260 259 257 254 249 246 244 246 248
230 234 239 247 255 263 268 272 278 286 294 300 305 314 315 317 317 316 316 313 311 307 299 293 288 288 287 283 279 276 274 270 265 260 258 256 255 254 251 247 244 244 245 245
239 239 241 249 258 267 272 276 281 285 291 297 303 312 311 313 314 314 313 311 308 306 301 294 290 289 287 284 279 276 274 269 265 258 255 254 253 251 248 245 242 242 242 243
243 243 245 253 261 267 274 278 282 285 289 296 302 307 306 309 311 310 310 309 306 304 301 296 293 291 288 285 281 276 273 268 262 258 254 252 250 249 247 243 242 241 241 244
245 249 252 258 264 268 274 279 282 286 292 297 300 301 304 307 309 307 307 306 304 303 300 295 292 290 287 284 281 275 271 267 262 259 255 250 249 248 246 244 242 241 241 243
246 251 255 259 261 267 275 279 282 288 292 294 297 298 301 304 305 305 305 305 303 301 297 293 291 288 285 281 278 274 271 268 264 259 255 251 249 246 244 243 243 241 241 242
248 254 255 257 261 267 275 279 282 287 292 294 296 297 299 301 301 302 303 304 302 299 297 294 291 288 285 281 277 273 270 268 265 260 255 253 251 248 245 244 244 241 240 242
249 252 252 255 262 270 277 281 284 288 290 293 296 296 298 299 300 300 302 303 301 299 297 295 292 289 287 282 278 274 271 269 266 262 256 253 251 248 247 247 245 244 242 242
250 252 256 259 262 268 277 280 282 286 292 293 294 295 297 299 301 302 302 302 300 299 298 296 293 290 287 284 279 274 272 270 266 263 257 252 250 246 244 246 247 246 242 241
253 255 257 260 265 268 273 281 284 286 291 293 295 295 296 300 302 302 302 302 301 299 298 296 294 290 286 283 280 277 274 270 266 262 258 252 248 245 245 245 246 246 244 241
254 255 255 258 264 270 275 280 283 288 292 294 296 297 300 303 303 304 305 304 302 299 297 296 294 290 286 283 280 279 274 270 264 260 257 253 247 244 243 243 243 243 241 240
252 254 255 257 265 273 278 281 284 288 294 298 299 301 303 304 305 307 307 305 303 302 299 297 295 291 287 284 282 279 277 271 262 257 253 247 243 242 239 239 238 237 237 240
251 252 254 260 266 272 275 280 286 290 294 299 302 303 305 306 308 309 309 308 307 305 302 300 297 290 286 284 283 281 275 266 258 253 249 249 244 236 233 235 234 235 235 238
248 252 257 261 266 272 275 281 290 294 295 300 304 306 309 311 311 312 312 312 312 310 306 303 298 292 287 284 281 279 273 260 252 246 241 242 241 230 228 230 232 235 235 237
248 250 253 257 264 270 275 282 289 295 300 305 310 313 315 316 315 315 316 317 319 318 314 309 304 297 291 283 276 272 267 251 242 236 232 231 230 224 222 226 229 232 235 237
240 243 248 252 259 263 271 280 289 300 308 313 316 319 322 325 324 323 326 327 328 325 322 317 312 306 298 288 274 273 259 243 237 231 223 217 220 218 219 223 225 226 231 237
238 239 242 245 246 255 265 274 285 300 310 316 323 331 334 333 332 333 336 337 336 334 333 329 323 318 312 301 292 278 248 228 218 214 211 210 211 210 214 215 213 220 228 232
Height
5784 5787 5788 5790 5792 5794 5796 5798 5799 5801 5802 5803 5804 5805 5805 5805 5806 5806 5806 5805 5805 5804 5804 5804 5803 5802 5802 5802 5802 5802 5803 5804 5804 5805 5805 5806 5807 5808 5809 5811 5813 5815 5817 5819
5783 5785 5787 5788 5790 5792 5794 5797 5798 5799 5799 5800 5800 5801 5801 5801 5801 5801 5800 5800 5800 5799 5798 5797 5796 5795 5795 5795 5795 5795 5796 5796 5797 5797 5798 5798 5799 5801 5802 5803 5805 5807 5809 5810
5781 5784 5785 5787 5789 5791 5793 5795 5796 5796 5796 5797 5797 5798 5797 5797 5796 5796 5795 5794 5793 5792 5791 5790 5790 5789 5789 5789 5789 5789 5789 5789 5789 5790 5790 5791 5792 5794 5795 5796 5798 5799 5801 5803
5780 5782 5785 5786 5788 5790 5792 5793 5793 5794 5794 5793 5794 5794 5794 5792 5791 5791 5790 5788 5787 5786 5785 5784 5783 5782 5782 5782 5782 5782 5782 5782 5782 5783 5783 5784 5785 5787 5788 5790 5791 5792 5794 5796
5779 5781 5784 5786 5787 5789 5790 5791 5791 5791 5790 5791 5790 5790 5790 5788 5787 5786 5784 5783 5781 5780 5779 5778 5777 5776 5776 5775 5775 5775 5776 5776 5776 5776 5777 5777 5778 5780 5781 5783 5784 5786 5787 5789
5778 5781 5783 5785 5786 5787 5788 5789 5789 5788 5788 5788 5788 5787 5786 5784 5783 5781 5780 5778 5776 5775 5773 5772 5771 5770 5770 5769 5769 5770 5770 5770 5770 5770 5770 5771 5772 5773 5775 5776 5778 5780 5781 5783
5778 5780 5782 5784 5785 5786 5786 5787 5787 5786 5786 5786 5785 5783 5783 5781 5779 5778 5776 5773 5771 5770 5768 5767 5766 5765 5764 5764 5764 5764 5764 5764 5764 5764 5765 5765 5766 5767 5769 5770 5772 5774 5776 5777
5777 5779 5781 5782 5783 5784 5784 5785 5785 5785 5784 5784 5782 5781 5781 5778 5776 5774 5771 5769 5767 5765 5764 5763 5761 5760 5760 5759 5759 5759 5759 5758 5758 5759 5759 5760 5760 5761 5763 5764 5766 5767 5769 5771
5776 5778 5779 5780 5781 5782 5781 5781 5782 5782 5781 5781 5780 5779 5778 5775 5772 5770 5767 5765 5763 5762 5760 5758 5757 5756 5755 5755 5754 5754 5753 5753 5753 5753 5754 5754 5755 5755 5757 5758 5760 5761 5763 5765
5774 5776 5777 5778 5779 5779 5779 5779 5779 5779 5778 5777 5777 5776 5775 5772 5770 5767 5765 5762 5760 5758 5756 5754 5753 5752 5751 5750 5749 5749 5748 5747 5747 5747 5748 5749 5749 5750 5751 5752 5754 5756 5757 5759
5772 5774 5776 5776 5776 5776 5777 5777 5776 5776 5775 5774 5773 5776 5772 5769 5767 5764 5762 5759 5757 5755 5753 5751 5749 5748 5747 5746 5745 5744 5743 5743 5742 5742 5743 5743 5744 5744 5745 5747 5748 5750 5752 5753
5770 5772 5773 5773 5774 5774 5774 5774 5773 5773 5773 5771 5770 5773 5768 5766 5763 5761 5759 5756 5754 5752 5749 5747 5746 5744 5743 5741 5740 5739 5738 5738 5737 5737 5738 5738 5738 5739 5740 5741 5743 5744 5746 5748
5767 5769 5770 5771 5773 5772 5771 5771 5770 5770 5769 5768 5767 5769 5765 5762 5760 5758 5755 5753 5750 5748 5745 5743 5741 5740 5738 5737 5735 5734 5733 5733 5732 5732 5732 5733 5733 5734 5735 5736 5738 5739 5741 5743
5764 5765 5767 5768 5768 5768 5768 5768 5767 5767 5766 5765 5764 5763 5761 5758 5756 5754 5751 5748 5746 5743 5741 5739 5737 5735 5733 5732 5731 5729 5728 5728 5727 5727 5727 5728 5728 5729 5730 5731 5733 5734 5736 5737
5760 5761 5762 5764 5764 5764 5765 5764 5764 5763 5762 5761 5760 5758 5757 5754 5752 5750 5747 5744 5741 5738 5736 5734 5731 5729 5728 5726 5725 5724 5723 5722 5722 5722 5722 5722 5723 5724 5725 5726 5727 5728 5730 5732
5756 5757 5758 5760 5760 5760 5761 5761 5760 5759 5758 5757 5756 5754 5752 5750 5747 5745 5742 5739 5736 5733 5730 5728 5726 5723 5722 5720 5719 5718 5717 5716 5716 5716 5716 5717 5718 5718 5719 5721 5722 5723 5725 5726
5751 5753 5754 5756 5756 5757 5758 5758 5757 5756 5754 5753 5751 5750 5747 5745 5742 5740 5737 5734 5730 5727 5724 5722 5719 5717 5715 5713 5712 5711 5711 5710 5710 5710 5710 5711 5712 5713 5714 5715 5717 5718 5720 5722
5747 5749 5750 5751 5753 5753 5756 5754 5753 5752 5751 5748 5746 5744 5742 5740 5737 5734 5731 5728 5724 5721 5718 5715 5712 5710 5708 5707 5706 5705 5704 5704 5704 5704 5704 5705 5706 5707 5708 5710 5711 5713 5714 5716
5743 5745 5746 5747 5748 5749 5751 5749 5748 5748 5747 5744 5742 5739 5737 5734 5731 5728 5724 5721 5718 5715 5711 5708 5706 5704 5702 5700 5699 5698 5698 5698 5698 5698 5698 5699 5700 5702 5703 5705 5706 5708 5710 5712
5740 5741 5743 5743 5744 5745 5747 5745 5743 5744 5742 5740 5737 5734 5732 5729 5726 5723 5719 5715 5712 5708 5705 5702 5700 5698 5696 5695 5693 5692 5692 5692 5692 5692 5693 5694 5695 5697 5699 5700 5702 5704 5706 5707
5736 5737 5739 5740 5740 5741 5742 5740 5740 5740 5739 5735 5732 5730 5727 5724 5721 5717 5713 5709 5706 5703 5700 5697 5694 5692 5691 5689 5688 5688 5687 5687 5687 5687 5688 5689 5691 5693 5694 5696 5698 5700 5702 5704
5732 5733 5735 5736 5737 5739 5737 5736 5736 5735 5733 5731 5728 5725 5722 5719 5715 5711 5708 5704 5701 5697 5695 5692 5690 5688 5686 5685 5684 5684 5683 5683 5683 5684 5685 5686 5688 5689 5691 5693 5695 5697 5699 5701
5729 5731 5731 5733 5735 5734 5733 5733 5732 5731 5729 5727 5724 5721 5718 5714 5711 5707 5703 5700 5696 5693 5690 5688 5686 5684 5683 5682 5681 5681 5680 5680 5680 5681 5682 5684 5685 5687 5688 5690 5692 5694 5696 5698
5726 5727 5728 5729 5730 5730 5730 5730 5729 5727 5726 5723 5721 5718 5714 5711 5707 5703 5700 5696 5693 5689 5687 5684 5682 5681 5680 5679 5678 5678 5678 5678 5679 5680 5681 5682 5684 5685 5687 5689 5691 5692 5694 5696
5723 5724 5725 5726 5727 5727 5727 5727 5726 5725 5723 5721 5718 5715 5712 5708 5704 5700 5697 5693 5690 5687 5684 5681 5680 5679 5678 5677 5677 5676 5677 5677 5678 5679 5680 5681 5683 5684 5686 5687 5689 5691 5692 5694
5719 5721 5723 5724 5725 5726 5726 5725 5725 5723 5721 5719 5717 5713 5709 5706 5702 5698 5695 5691 5688 5685 5683 5680 5679 5677 5676 5676 5676 5675 5675 5676 5677 5678 5679 5680 5682 5684 5685 5687 5688 5690 5691 5692